QPF
0.02 0.02 0.02 0.03 0.03 0.02 0.03 0.03 0.03 0.02 0.01 0.01 0.01 0.00 0.00 0.00 0.00 0.00 0.01 0.01 0.01 0.01 0.01 0.00 0.00 0.00 0.00 0.00 0.01 0.01 0.02 0.02 0.01 0.02 0.03 0.03 0.03 0.02 0.02 0.02 0.02 0.03 0.03 0.04
0.01 0.01 0.02 0.02 0.01 0.01 0.02 0.02 0.02 0.01 0.01 0.00 0.00 0.00 0.00 0.00 0.00 0.00 0.00 0.00 0.00 0.00 0.01 0.01 0.01 0.00 0.00 0.01 0.01 0.02 0.01 0.01 0.01 0.01 0.01 0.02 0.02 0.03 0.02 0.02 0.02 0.03 0.03 0.02
0.02 0.01 0.01 0.02 0.01 0.01 0.01 0.01 0.01 0.01 0.01 0.01 0.00 0.01 0.01 0.00 0.00 0.00 0.00 0.00 0.00 0.00 0.00 0.00 0.01 0.01 0.01 0.01 0.01 0.01 0.01 0.01 0.01 0.00 0.00 0.01 0.01 0.01 0.02 0.01 0.01 0.02 0.02 0.02
0.03 0.02 0.03 0.02 0.01 0.01 0.01 0.01 0.01 0.02 0.01 0.01 0.00 0.01 0.01 0.01 0.01 0.01 0.00 0.00 0.00 0.00 0.00 0.00 0.00 0.00 0.00 0.01 0.01 0.01 0.01 0.01 0.01 0.01 0.00 0.01 0.01 0.01 0.01 0.01 0.01 0.01 0.02 0.01
0.05 0.04 0.02 0.01 0.01 0.01 0.01 0.01 0.01 0.01 0.01 0.01 0.01 0.01 0.01 0.01 0.01 0.01 0.01 0.01 0.00 0.00 0.00 0.00 0.00 0.00 0.00 0.00 0.01 0.01 0.01 0.02 0.01 0.01 0.01 0.01 0.01 0.01 0.01 0.01 0.01 0.01 0.01 0.01
0.08 0.06 0.04 0.01 0.01 0.00 0.01 0.02 0.01 0.01 0.01 0.01 0.01 0.01 0.01 0.02 0.01 0.01 0.01 0.01 0.01 0.01 0.00 0.01 0.01 0.01 0.01 0.01 0.02 0.02 0.02 0.02 0.03 0.02 0.02 0.02 0.01 0.01 0.01 0.01 0.01 0.02 0.02 0.02
0.06 0.06 0.04 0.02 0.01 0.01 0.03 0.04 0.02 0.01 0.01 0.01 0.01 0.02 0.01 0.01 0.02 0.01 0.01 0.01 0.01 0.01 0.01 0.00 0.01 0.01 0.02 0.02 0.03 0.03 0.03 0.03 0.04 0.03 0.03 0.03 0.02 0.02 0.01 0.01 0.01 0.02 0.02 0.02
0.07 0.08 0.06 0.02 0.02 0.03 0.04 0.02 0.01 0.01 0.01 0.01 0.01 0.01 0.01 0.01 0.01 0.02 0.01 0.01 0.01 0.00 0.00 0.00 0.00 0.01 0.01 0.02 0.02 0.03 0.04 0.04 0.04 0.04 0.04 0.04 0.03 0.03 0.02 0.02 0.02 0.02 0.03 0.03
0.08 0.08 0.06 0.03 0.03 0.03 0.02 0.02 0.02 0.02 0.02 0.02 0.01 0.01 0.01 0.01 0.01 0.01 0.01 0.01 0.01 0.01 0.01 0.00 0.00 0.01 0.01 0.01 0.01 0.02 0.03 0.03 0.03 0.03 0.03 0.03 0.04 0.03 0.03 0.03 0.02 0.02 0.02 0.03
0.07 0.07 0.04 0.04 0.03 0.02 0.01 0.02 0.02 0.02 0.02 0.02 0.02 0.01 0.01 0.01 0.01 0.01 0.01 0.01 0.01 0.01 0.01 0.01 0.01 0.01 0.01 0.01 0.01 0.02 0.03 0.03 0.02 0.02 0.03 0.03 0.03 0.03 0.03 0.02 0.02 0.02 0.02 0.02
0.06 0.06 0.04 0.04 0.04 0.03 0.02 0.02 0.01 0.01 0.01 0.01 0.01 0.01 0.01 0.01 0.01 0.02 0.02 0.02 0.02 0.01 0.01 0.01 0.01 0.01 0.01 0.01 0.01 0.02 0.02 0.03 0.03 0.03 0.03 0.03 0.03 0.02 0.02 0.01 0.02 0.02 0.02 0.02
0.06 0.05 0.05 0.05 0.05 0.03 0.03 0.02 0.02 0.01 0.01 0.01 0.01 0.01 0.01 0.01 0.01 0.02 0.02 0.01 0.01 0.01 0.01 0.01 0.02 0.01 0.01 0.01 0.01 0.02 0.02 0.03 0.03 0.03 0.03 0.03 0.03 0.03 0.02 0.02 0.02 0.02 0.02 0.02
0.05 0.04 0.03 0.04 0.04 0.03 0.03 0.02 0.02 0.01 0.01 0.01 0.01 0.01 0.01 0.01 0.01 0.01 0.01 0.01 0.01 0.01 0.01 0.01 0.01 0.02 0.01 0.01 0.01 0.02 0.02 0.02 0.03 0.03 0.03 0.03 0.03 0.02 0.02 0.02 0.02 0.02 0.02 0.03
0.02 0.02 0.02 0.02 0.03 0.03 0.02 0.02 0.01 0.01 0.01 0.01 0.01 0.01 0.01 0.01 0.01 0.01 0.01 0.01 0.01 0.01 0.01 0.01 0.01 0.01 0.01 0.01 0.01 0.01 0.02 0.02 0.02 0.02 0.03 0.02 0.02 0.02 0.02 0.02 0.01 0.02 0.02 0.02
0.01 0.01 0.02 0.01 0.01 0.01 0.01 0.01 0.01 0.01 0.01 0.01 0.01 0.01 0.01 0.01 0.01 0.01 0.01 0.01 0.01 0.01 0.01 0.01 0.01 0.02 0.01 0.01 0.01 0.01 0.01 0.01 0.01 0.02 0.02 0.02 0.02 0.02 0.02 0.02 0.02 0.01 0.01 0.02
0.01 0.01 0.01 0.01 0.01 0.01 0.00 0.00 0.01 0.01 0.01 0.01 0.01 0.01 0.02 0.02 0.01 0.02 0.02 0.02 0.01 0.01 0.01 0.01 0.01 0.01 0.01 0.01 0.01 0.01 0.01 0.01 0.01 0.02 0.02 0.02 0.02 0.02 0.02 0.02 0.02 0.01 0.01 0.02
0.02 0.02 0.02 0.01 0.01 0.01 0.01 0.01 0.01 0.01 0.01 0.01 0.01 0.01 0.01 0.01 0.01 0.01 0.01 0.01 0.01 0.01 0.01 0.01 0.01 0.01 0.01 0.01 0.01 0.01 0.01 0.01 0.01 0.02 0.02 0.02 0.02 0.02 0.02 0.02 0.02 0.02 0.02 0.02
0.02 0.02 0.02 0.02 0.02 0.01 0.01 0.02 0.02 0.01 0.01 0.01 0.01 0.01 0.01 0.01 0.01 0.01 0.01 0.01 0.01 0.01 0.01 0.01 0.01 0.00 0.00 0.00 0.01 0.01 0.01 0.01 0.01 0.02 0.02 0.02 0.02 0.02 0.02 0.02 0.02 0.02 0.03 0.03
0.02 0.02 0.02 0.02 0.02 0.01 0.01 0.01 0.01 0.01 0.01 0.00 0.00 0.00 0.00 0.01 0.01 0.01 0.01 0.01 0.01 0.00 0.00 0.00 0.00 0.00 0.00 0.00 0.01 0.01 0.01 0.01 0.01 0.01 0.02 0.02 0.02 0.02 0.02 0.02 0.02 0.03 0.03 0.04
0.01 0.01 0.01 0.01 0.01 0.01 0.01 0.01 0.01 0.01 0.01 0.00 0.00 0.00 0.00 0.00 0.00 0.01 0.01 0.01 0.01 0.01 0.01 0.01 0.01 0.00 0.00 0.00 0.01 0.01 0.01 0.01 0.01 0.01 0.01 0.02 0.02 0.02 0.02 0.03 0.03 0.03 0.03 0.04
0.01 0.01 0.01 0.01 0.01 0.01 0.01 0.01 0.01 0.01 0.01 0.00 0.00 0.00 0.00 0.00 0.01 0.01 0.01 0.01 0.01 0.01 0.01 0.01 0.01 0.01 0.00 0.01 0.01 0.00 0.01 0.01 0.01 0.01 0.01 0.01 0.02 0.02 0.02 0.02 0.03 0.03 0.03 0.03
0.01 0.01 0.01 0.01 0.01 0.01 0.01 0.01 0.01 0.01 0.00 0.00 0.00 0.00 0.00 0.00 0.00 0.01 0.01 0.01 0.01 0.01 0.01 0.01 0.01 0.01 0.01 0.01 0.01 0.01 0.01 0.01 0.01 0.01 0.01 0.01 0.01 0.02 0.02 0.02 0.03 0.03 0.03 0.03
0.01 0.01 0.01 0.01 0.01 0.01 0.01 0.01 0.01 0.00 0.00 0.00 0.00 0.00 0.00 0.00 0.01 0.01 0.01 0.01 0.01 0.01 0.01 0.01 0.01 0.01 0.02 0.02 0.01 0.01 0.01 0.01 0.00 0.00 0.00 0.01 0.01 0.01 0.02 0.02 0.02 0.03 0.03 0.03
0.01 0.01 0.01 0.01 0.01 0.01 0.01 0.01 0.01 0.00 0.00 0.00 0.00 0.00 0.00 0.00 0.01 0.01 0.01 0.01 0.01 0.01 0.01 0.01 0.01 0.01 0.01 0.01 0.01 0.01 0.01 0.00 0.00 0.01 0.01 0.01 0.01 0.01 0.01 0.02 0.02 0.02 0.02 0.02
0.00 0.01 0.01 0.01 0.01 0.01 0.01 0.01 0.01 0.00 0.00 0.00 0.00 0.00 0.00 0.01 0.01 0.01 0.01 0.01 0.00 0.01 0.01 0.01 0.02 0.02 0.02 0.01 0.01 0.01 0.01 0.01 0.01 0.01 0.01 0.01 0.01 0.01 0.01 0.01 0.01 0.02 0.02 0.02
0.00 0.01 0.01 0.01 0.01 0.01 0.01 0.01 0.01 0.01 0.01 0.00 0.00 0.00 0.00 0.01 0.01 0.01 0.01 0.01 0.01 0.01 0.01 0.01 0.01 0.02 0.02 0.02 0.01 0.01 0.01 0.01 0.01 0.01 0.01 0.01 0.01 0.01 0.01 0.01 0.01 0.01 0.01 0.01
0.00 0.00 0.00 0.01 0.01 0.01 0.01 0.01 0.01 0.01 0.01 0.01 0.01 0.00 0.00 0.00 0.00 0.01 0.01 0.01 0.01 0.01 0.01 0.01 0.01 0.01 0.01 0.01 0.01 0.01 0.01 0.01 0.01 0.01 0.01 0.01 0.01 0.01 0.01 0.01 0.01 0.01 0.01 0.01
MSLP
1007.10 1006.58 1006.10 1005.65 1005.22 1004.79 1004.39 1004.01 1003.69 1003.46 1003.34 1003.36 1003.51 1003.80 1004.19 1004.66 1005.17 1005.68 1006.17 1006.64 1007.07 1007.50 1007.93 1008.38 1008.88 1009.43 1010.01 1010.63 1011.25 1011.87 1012.46 1013.04 1013.61 1014.19 1014.78 1015.41 1016.08 1016.80 1017.54 1018.28 1019.01 1019.69 1020.32 1020.87
1007.58 1006.85 1006.12 1005.41 1004.72 1004.09 1003.53 1003.09 1002.79 1002.64 1002.67 1002.86 1003.20 1003.66 1004.20 1004.78 1005.36 1005.91 1006.42 1006.90 1007.35 1007.79 1008.26 1008.77 1009.33 1009.93 1010.57 1011.23 1011.88 1012.50 1013.10 1013.67 1014.23 1014.79 1015.37 1015.99 1016.66 1017.38 1018.12 1018.86 1019.58 1020.26 1020.87 1021.40
1007.67 1006.76 1005.82 1004.87 1003.96 1003.14 1002.47 1001.97 1001.69 1001.63 1001.80 1002.17 1002.71 1003.35 1004.06 1004.77 1005.45 1006.08 1006.65 1007.17 1007.66 1008.16 1008.68 1009.25 1009.87 1010.53 1011.23 1011.92 1012.59 1013.23 1013.83 1014.40 1014.94 1015.48 1016.05 1016.67 1017.33 1018.03 1018.76 1019.48 1020.18 1020.83 1021.40 1021.89
1007.32 1006.26 1005.14 1004.01 1002.93 1001.99 1001.23 1000.71 1000.47 1000.52 1000.84 1001.39 1002.12 1002.97 1003.85 1004.72 1005.54 1006.28 1006.94 1007.54 1008.10 1008.66 1009.24 1009.87 1010.54 1011.25 1011.97 1012.69 1013.38 1014.01 1014.60 1015.15 1015.68 1016.20 1016.76 1017.35 1017.99 1018.67 1019.37 1020.06 1020.73 1021.33 1021.86 1022.30
1006.61 1005.44 1004.19 1002.94 1001.76 1000.74 999.95 999.46 999.29 999.46 999.94 1000.68 1001.61 1002.65 1003.73 1004.78 1005.75 1006.62 1007.39 1008.08 1008.72 1009.34 1009.98 1010.64 1011.34 1012.07 1012.80 1013.51 1014.18 1014.79 1015.36 1015.88 1016.38 1016.88 1017.41 1017.97 1018.59 1019.23 1019.90 1020.56 1021.18 1021.73 1022.21 1022.60
1005.74 1004.48 1003.16 1001.84 1000.62 999.59 998.84 998.41 998.34 998.65 999.29 1000.21 1001.33 1002.56 1003.82 1005.03 1006.15 1007.15 1008.03 1008.82 1009.53 1010.20 1010.88 1011.56 1012.26 1012.96 1013.67 1014.34 1014.97 1015.54 1016.07 1016.55 1017.02 1017.49 1017.99 1018.53 1019.11 1019.72 1020.34 1020.95 1021.52 1022.03 1022.46 1022.80
1004.93 1003.63 1002.28 1000.97 999.77 998.79 998.10 997.77 997.83 998.27 999.06 1000.14 1001.41 1002.80 1004.21 1005.55 1006.80 1007.91 1008.88 1009.74 1010.50 1011.21 1011.89 1012.56 1013.23 1013.89 1014.54 1015.15 1015.72 1016.24 1016.72 1017.16 1017.59 1018.04 1018.51 1019.01 1019.56 1020.13 1020.71 1021.27 1021.79 1022.24 1022.62 1022.93
1004.41 1003.12 1001.80 1000.54 999.42 998.53 997.95 997.74 997.91 998.47 999.37 1000.56 1001.94 1003.43 1004.92 1006.36 1007.68 1008.86 1009.89 1010.78 1011.57 1012.28 1012.94 1013.57 1014.19 1014.79 1015.37 1015.91 1016.42 1016.88 1017.31 1017.72 1018.12 1018.53 1018.98 1019.46 1019.97 1020.50 1021.03 1021.54 1022.00 1022.41 1022.74 1023.00
1004.36 1003.12 1001.88 1000.71 999.70 998.94 998.48 998.38 998.65 999.29 1000.26 1001.50 1002.92 1004.43 1005.94 1007.39 1008.73 1009.92 1010.96 1011.85 1012.63 1013.32 1013.94 1014.53 1015.08 1015.62 1016.12 1016.60 1017.05 1017.46 1017.85 1018.23 1018.62 1019.02 1019.44 1019.90 1020.38 1020.86 1021.34 1021.79 1022.20 1022.54 1022.82 1023.04
1004.84 1003.68 1002.56 1001.53 1000.66 1000.03 999.69 999.68 1000.02 1000.70 1001.67 1002.88 1004.26 1005.71 1007.17 1008.56 1009.85 1010.99 1011.99 1012.85 1013.59 1014.24 1014.82 1015.36 1015.86 1016.33 1016.78 1017.21 1017.61 1017.99 1018.36 1018.73 1019.11 1019.50 1019.91 1020.34 1020.78 1021.22 1021.64 1022.02 1022.36 1022.64 1022.87 1023.04
1005.79 1004.77 1003.79 1002.91 1002.19 1001.69 1001.45 1001.51 1001.88 1002.54 1003.45 1004.58 1005.84 1007.17 1008.50 1009.77 1010.95 1012.00 1012.92 1013.72 1014.40 1015.00 1015.54 1016.03 1016.48 1016.92 1017.33 1017.73 1018.11 1018.48 1018.85 1019.21 1019.59 1019.97 1020.37 1020.77 1021.17 1021.56 1021.91 1022.22 1022.49 1022.70 1022.85 1022.98
1007.08 1006.21 1005.40 1004.68 1004.10 1003.72 1003.57 1003.67 1004.02 1004.62 1005.43 1006.41 1007.51 1008.67 1009.82 1010.93 1011.95 1012.88 1013.70 1014.41 1015.04 1015.59 1016.09 1016.55 1016.98 1017.39 1017.79 1018.18 1018.55 1018.93 1019.30 1019.67 1020.04 1020.42 1020.80 1021.17 1021.52 1021.84 1022.12 1022.35 1022.54 1022.67 1022.76 1022.83
1008.52 1007.82 1007.16 1006.59 1006.15 1005.87 1005.78 1005.89 1006.21 1006.72 1007.41 1008.23 1009.14 1010.09 1011.05 1011.98 1012.84 1013.63 1014.34 1014.98 1015.54 1016.05 1016.52 1016.96 1017.38 1017.79 1018.19 1018.58 1018.96 1019.34 1019.72 1020.09 1020.46 1020.82 1021.17 1021.50 1021.79 1022.04 1022.24 1022.39 1022.49 1022.55 1022.57 1022.57
1009.94 1009.38 1008.87 1008.43 1008.10 1007.91 1007.87 1007.98 1008.26 1008.68 1009.24 1009.90 1010.63 1011.40 1012.17 1012.92 1013.63 1014.30 1014.91 1015.46 1015.98 1016.45 1016.90 1017.33 1017.75 1018.16 1018.56 1018.95 1019.34 1019.72 1020.10 1020.46 1020.81 1021.15 1021.46 1021.73 1021.96 1022.14 1022.26 1022.33 1022.35 1022.33 1022.28 1022.23
1011.19 1010.75 1010.36 1010.03 1009.80 1009.68 1009.68 1009.80 1010.05 1010.40 1010.86 1011.38 1011.96 1012.57 1013.19 1013.79 1014.38 1014.93 1015.46 1015.95 1016.42 1016.87 1017.31 1017.73 1018.14 1018.54 1018.94 1019.33 1019.71 1020.08 1020.43 1020.77 1021.09 1021.38 1021.64 1021.85 1022.02 1022.12 1022.17 1022.16 1022.11 1022.03 1021.93 1021.83
1012.22 1011.87 1011.56 1011.33 1011.18 1011.12 1011.16 1011.30 1011.53 1011.85 1012.23 1012.67 1013.15 1013.64 1014.14 1014.64 1015.13 1015.60 1016.06 1016.51 1016.94 1017.36 1017.78 1018.18 1018.58 1018.97 1019.34 1019.71 1020.06 1020.40 1020.72 1021.02 1021.29 1021.53 1021.73 1021.88 1021.98 1022.02 1022.00 1021.94 1021.83 1021.70 1021.55 1021.42
1013.02 1012.73 1012.49 1012.32 1012.23 1012.23 1012.32 1012.50 1012.75 1013.06 1013.41 1013.81 1014.22 1014.65 1015.08 1015.51 1015.93 1016.34 1016.75 1017.15 1017.55 1017.94 1018.33 1018.70 1019.07 1019.43 1019.76 1020.09 1020.40 1020.69 1020.96 1021.20 1021.41 1021.59 1021.74 1021.83 1021.87 1021.86 1021.79 1021.68 1021.54 1021.37 1021.19 1021.03
1013.65 1013.39 1013.19 1013.08 1013.05 1013.11 1013.26 1013.48 1013.76 1014.09 1014.46 1014.84 1015.24 1015.63 1016.02 1016.40 1016.78 1017.15 1017.51 1017.87 1018.23 1018.58 1018.92 1019.26 1019.58 1019.88 1020.17 1020.44 1020.69 1020.92 1021.13 1021.32 1021.47 1021.59 1021.68 1021.72 1021.72 1021.66 1021.56 1021.42 1021.25 1021.06 1020.87 1020.68
1014.19 1013.95 1013.79 1013.72 1013.74 1013.86 1014.07 1014.34 1014.67 1015.04 1015.43 1015.82 1016.21 1016.59 1016.95 1017.30 1017.64 1017.96 1018.28 1018.59 1018.90 1019.20 1019.49 1019.77 1020.04 1020.28 1020.51 1020.72 1020.91 1021.08 1021.23 1021.35 1021.46 1021.53 1021.57 1021.57 1021.53 1021.45 1021.33 1021.17 1020.99 1020.78 1020.57 1020.37
1014.73 1014.50 1014.37 1014.34 1014.41 1014.58 1014.84 1015.16 1015.54 1015.94 1016.35 1016.75 1017.13 1017.49 1017.83 1018.14 1018.43 1018.71 1018.97 1019.23 1019.48 1019.72 1019.96 1020.18 1020.38 1020.57 1020.74 1020.89 1021.03 1021.14 1021.24 1021.32 1021.37 1021.41 1021.41 1021.39 1021.32 1021.22 1021.09 1020.92 1020.72 1020.51 1020.29 1020.07
1015.32 1015.12 1015.01 1015.02 1015.13 1015.34 1015.64 1015.99 1016.39 1016.80 1017.21 1017.60 1017.97 1018.30 1018.59 1018.85 1019.09 1019.30 1019.51 1019.70 1019.89 1020.07 1020.25 1020.41 1020.56 1020.70 1020.83 1020.93 1021.02 1021.09 1021.15 1021.19 1021.21 1021.22 1021.20 1021.15 1021.07 1020.96 1020.82 1020.64 1020.44 1020.21 1019.98 1019.74
1016.02 1015.84 1015.76 1015.79 1015.93 1016.16 1016.47 1016.83 1017.22 1017.62 1018.00 1018.35 1018.67 1018.94 1019.17 1019.37 1019.54 1019.69 1019.83 1019.96 1020.08 1020.21 1020.34 1020.45 1020.57 1020.67 1020.75 1020.82 1020.88 1020.93 1020.96 1020.97 1020.97 1020.96 1020.92 1020.86 1020.77 1020.65 1020.50 1020.31 1020.10 1019.86 1019.61 1019.35
1016.83 1016.67 1016.62 1016.66 1016.81 1017.03 1017.32 1017.66 1018.00 1018.35 1018.67 1018.95 1019.19 1019.39 1019.54 1019.66 1019.76 1019.84 1019.91 1019.99 1020.07 1020.15 1020.24 1020.32 1020.41 1020.48 1020.55 1020.60 1020.64 1020.67 1020.68 1020.68 1020.67 1020.64 1020.59 1020.52 1020.41 1020.28 1020.12 1019.92 1019.70 1019.45 1019.18 1018.89
1017.73 1017.60 1017.55 1017.59 1017.72 1017.91 1018.16 1018.43 1018.70 1018.96 1019.19 1019.38 1019.53 1019.64 1019.71 1019.75 1019.77 1019.79 1019.82 1019.85 1019.89 1019.95 1020.01 1020.08 1020.15 1020.21 1020.27 1020.31 1020.34 1020.35 1020.35 1020.34 1020.32 1020.27 1020.21 1020.12 1020.00 1019.86 1019.68 1019.48 1019.24 1018.97 1018.69 1018.38
1018.71 1018.59 1018.53 1018.55 1018.63 1018.77 1018.94 1019.11 1019.29 1019.45 1019.57 1019.66 1019.71 1019.72 1019.72 1019.69 1019.66 1019.63 1019.62 1019.63 1019.65 1019.69 1019.75 1019.81 1019.87 1019.92 1019.97 1020.00 1020.02 1020.02 1020.01 1019.98 1019.94 1019.88 1019.79 1019.69 1019.56 1019.40 1019.22 1018.99 1018.74 1018.46 1018.16 1017.85
1019.72 1019.59 1019.51 1019.48 1019.50 1019.56 1019.63 1019.71 1019.78 1019.82 1019.84 1019.83 1019.79 1019.72 1019.65 1019.58 1019.51 1019.46 1019.43 1019.43 1019.44 1019.48 1019.53 1019.59 1019.64 1019.69 1019.72 1019.74 1019.74 1019.72 1019.68 1019.63 1019.56 1019.47 1019.37 1019.25 1019.10 1018.93 1018.73 1018.49 1018.23 1017.94 1017.63 1017.30
1020.72 1020.55 1020.44 1020.35 1020.30 1020.27 1020.24 1020.22 1020.18 1020.12 1020.04 1019.95 1019.84 1019.72 1019.61 1019.51 1019.43 1019.37 1019.34 1019.34 1019.36 1019.40 1019.44 1019.49 1019.52 1019.55 1019.55 1019.54 1019.50 1019.44 1019.37 1019.28 1019.18 1019.07 1018.94 1018.79 1018.63 1018.44 1018.22 1017.98 1017.71 1017.41 1017.09 1016.76
Thickness
5448 5458 5458 5460 5465 5470 5469 5472 5471 5486 5494 5499 5497 5496 5496 5495 5495 5495 5495 5496 5496 5495 5495 5495 5496 5497 5498 5499 5500 5501 5502 5503 5504 5505 5507 5507 5508 5509 5510 5511 5513 5514 5515 5515
5427 5443 5446 5450 5459 5462 5465 5468 5470 5475 5482 5492 5489 5488 5486 5484 5484 5484 5484 5485 5485 5486 5485 5485 5487 5488 5488 5489 5489 5490 5490 5491 5492 5494 5494 5495 5496 5497 5498 5499 5500 5502 5502 5501
5406 5425 5428 5429 5448 5453 5456 5460 5461 5461 5470 5475 5474 5475 5475 5475 5475 5475 5475 5475 5474 5474 5474 5475 5476 5478 5478 5478 5478 5478 5479 5480 5481 5482 5482 5483 5484 5485 5485 5486 5487 5487 5488 5488
5390 5400 5393 5426 5443 5447 5448 5449 5451 5453 5457 5460 5463 5464 5466 5467 5465 5465 5466 5464 5463 5463 5463 5464 5465 5466 5467 5467 5466 5466 5467 5468 5469 5470 5471 5471 5472 5472 5473 5473 5474 5474 5475 5475
5375 5381 5397 5415 5424 5427 5428 5430 5435 5439 5443 5447 5450 5451 5450 5455 5456 5455 5454 5454 5452 5452 5453 5453 5454 5455 5454 5454 5454 5454 5455 5456 5457 5458 5459 5459 5459 5459 5460 5461 5461 5462 5462 5461
5366 5371 5379 5392 5407 5417 5416 5411 5419 5425 5427 5430 5433 5430 5433 5440 5442 5442 5441 5441 5441 5440 5441 5441 5442 5443 5442 5442 5442 5441 5442 5443 5444 5445 5446 5447 5447 5448 5448 5448 5448 5449 5448 5448
5357 5361 5369 5380 5394 5404 5393 5392 5405 5410 5413 5415 5414 5417 5420 5424 5426 5427 5428 5429 5429 5428 5429 5429 5429 5430 5430 5429 5429 5429 5430 5430 5431 5432 5433 5434 5435 5435 5435 5435 5435 5434 5434 5434
5351 5351 5355 5369 5377 5376 5376 5384 5390 5395 5397 5398 5400 5404 5407 5409 5410 5412 5413 5414 5415 5415 5415 5416 5417 5418 5417 5417 5417 5417 5418 5418 5419 5419 5420 5421 5421 5421 5421 5421 5420 5420 5419 5419
5338 5339 5348 5357 5360 5364 5370 5373 5376 5378 5382 5384 5385 5388 5390 5393 5395 5397 5398 5399 5400 5401 5401 5402 5404 5405 5404 5404 5405 5406 5406 5405 5406 5407 5407 5408 5407 5407 5407 5407 5406 5406 5405 5405
5329 5333 5337 5343 5348 5352 5357 5360 5363 5366 5368 5370 5371 5373 5375 5377 5380 5381 5383 5384 5386 5387 5388 5388 5390 5391 5392 5393 5394 5394 5394 5394 5394 5395 5395 5395 5395 5395 5394 5393 5393 5392 5392 5392
5316 5321 5327 5332 5334 5338 5342 5346 5350 5354 5356 5356 5358 5359 5362 5363 5365 5367 5369 5370 5372 5374 5375 5375 5377 5378 5379 5380 5381 5382 5382 5382 5382 5383 5383 5383 5383 5382 5382 5382 5382 5381 5380 5380
5302 5308 5311 5316 5322 5326 5329 5333 5336 5340 5342 5345 5347 5348 5349 5350 5353 5355 5357 5358 5359 5361 5362 5364 5365 5366 5367 5369 5370 5371 5371 5371 5371 5371 5371 5371 5371 5370 5371 5371 5371 5371 5371 5370
5295 5299 5302 5307 5312 5315 5318 5321 5325 5327 5330 5333 5335 5336 5337 5338 5340 5342 5344 5346 5347 5349 5350 5352 5353 5354 5356 5358 5360 5361 5360 5360 5359 5360 5361 5361 5360 5360 5359 5359 5360 5360 5360 5360
5289 5292 5294 5297 5300 5304 5307 5310 5314 5317 5320 5321 5322 5324 5325 5326 5328 5330 5332 5334 5336 5338 5340 5341 5342 5344 5346 5348 5349 5349 5349 5349 5349 5349 5350 5349 5349 5349 5348 5348 5348 5348 5349 5348
5281 5283 5284 5288 5291 5294 5297 5300 5302 5305 5307 5309 5310 5311 5313 5315 5317 5319 5321 5323 5325 5326 5328 5330 5332 5333 5335 5337 5338 5338 5338 5338 5338 5339 5339 5339 5339 5338 5338 5337 5336 5336 5336 5336
5271 5275 5277 5279 5281 5284 5286 5288 5290 5293 5295 5297 5298 5300 5301 5304 5306 5308 5310 5312 5313 5315 5317 5319 5320 5322 5324 5326 5326 5327 5328 5329 5329 5328 5328 5328 5328 5328 5328 5327 5326 5326 5326 5326
5260 5263 5266 5267 5270 5273 5275 5276 5278 5281 5283 5285 5286 5288 5291 5292 5294 5296 5298 5300 5302 5304 5306 5308 5309 5312 5314 5315 5316 5317 5317 5318 5319 5318 5319 5319 5319 5319 5318 5318 5317 5316 5316 5316
5252 5253 5255 5257 5259 5262 5264 5266 5268 5270 5272 5274 5276 5278 5280 5281 5282 5285 5287 5289 5291 5294 5296 5298 5299 5301 5303 5304 5305 5306 5307 5307 5308 5308 5309 5309 5309 5309 5308 5307 5307 5307 5307 5307
5245 5246 5248 5249 5250 5252 5254 5255 5258 5260 5262 5264 5266 5268 5269 5270 5272 5274 5277 5279 5281 5283 5286 5288 5290 5291 5292 5294 5295 5296 5297 5297 5298 5299 5299 5300 5299 5299 5298 5298 5297 5297 5298 5298
5236 5237 5239 5240 5241 5242 5244 5246 5248 5251 5253 5255 5256 5258 5259 5260 5262 5264 5266 5268 5270 5272 5275 5277 5279 5280 5282 5283 5285 5285 5286 5287 5288 5288 5289 5289 5289 5289 5288 5289 5288 5288 5289 5289
5226 5228 5229 5230 5231 5233 5235 5236 5239 5241 5243 5245 5246 5247 5248 5250 5252 5253 5255 5258 5261 5262 5264 5266 5268 5270 5272 5273 5275 5275 5276 5277 5278 5278 5279 5279 5279 5279 5280 5280 5280 5280 5280 5281
5217 5218 5220 5221 5222 5223 5225 5227 5229 5231 5233 5235 5236 5237 5239 5241 5242 5244 5246 5248 5251 5253 5254 5256 5257 5260 5262 5264 5264 5265 5266 5267 5268 5268 5269 5269 5270 5270 5270 5270 5270 5271 5271 5272
5209 5210 5211 5212 5213 5214 5216 5218 5220 5222 5223 5225 5227 5228 5229 5231 5232 5234 5237 5239 5241 5243 5245 5247 5249 5252 5254 5255 5255 5256 5257 5258 5259 5259 5260 5260 5261 5261 5261 5262 5262 5263 5263 5263
5201 5202 5203 5205 5205 5207 5208 5210 5212 5214 5215 5217 5218 5220 5221 5222 5224 5226 5228 5231 5233 5235 5237 5239 5242 5244 5246 5246 5247 5248 5249 5250 5251 5251 5252 5252 5252 5253 5254 5254 5255 5255 5255 5256
5194 5195 5197 5198 5199 5200 5202 5203 5204 5206 5208 5210 5212 5213 5214 5215 5216 5218 5220 5222 5225 5227 5229 5231 5234 5236 5237 5238 5239 5240 5241 5242 5243 5244 5244 5244 5245 5245 5246 5247 5247 5248 5248 5248
5188 5189 5190 5191 5191 5193 5194 5196 5197 5198 5200 5203 5205 5206 5207 5208 5209 5211 5213 5215 5217 5220 5222 5223 5225 5228 5229 5230 5231 5233 5234 5235 5235 5235 5236 5236 5237 5237 5238 5238 5239 5240 5241 5242
5182 5183 5184 5185 5186 5187 5187 5188 5190 5191 5193 5195 5197 5199 5200 5201 5203 5204 5206 5208 5210 5213 5215 5217 5219 5220 5222 5223 5224 5226 5227 5227 5228 5228 5228 5228 5229 5230 5231 5232 5233 5234 5235 5236